Volver al catálogo

SL-14 R/B

ActivoPO
NORAD 22784·ROCKET BODY·🇷🇺 Russia

Lanzado Aug 31, 1993 desde Plesetsk Cosmodrome

Loading…

Próximos Pases (próximas 24 horas)

TLE

ActualizadoSource: Space-Track

Época: Sep 14, 2026, 08:57 UTC

1 22784U 93055C   26257.37339541  .00000016  00000-0  10039-5 0  9997
2 22784  82.5483 229.1278 0021442 336.0011 176.2127 13.83552640668051

Sigue SL-14 R/B en tiempo real con AllMySat

Download on the App Store